{"data":{"norad_id":57075,"intl_designator":"2023-088AD","name":"STARLINK-5542","alt_names":[],"object_type":"PAYLOAD","status":"ACTIVE","operator":null,"country":"US","launch_date":"2023-06-22","launch_site_code":"AFWTR","launch_vehicle":null,"mission":null,"orbit_class":"UNKNOWN","rcs_meters":null,"size_class":null,"mass_kg":null,"dimensions":null,"purposes":["comms"],"wikipedia_slug":null,"has_3d_model":false,"image_url":null,"decayed_at":null,"tle_current":{"epoch":"2026-09-19T21:07:01.530912Z","epoch_age_seconds":174552,"freshness":"STALE","line1":"1 57075U 23088AD  26262.87987883  .00000373  00000+0  23083-4 0  9993","line2":"2 57075  43.0057  79.0660 0001469 275.5684  84.5000 15.27576663180206","mean_motion":15.27576663,"eccentricity":0.0001469,"inclination_deg":43.0057,"raan_deg":79.066,"arg_perigee_deg":275.5684,"mean_anomaly_deg":84.5,"bstar":2.3083e-5,"rev_number":18020,"period_min":94.266954639906,"perigee_km":482.05117853096,"apogee_km":484.06699794168,"semimajor_km":6861.1960882363,"source":"CELESTRAK","updated_at":"2026-09-21T09:00:33.553575Z"}}}